Estación de Pirque
Ultimos registro cada 15 minutos 30
| N° | Estación | Fecha / Hora | Temperatura | Humedad | Lluvia | Velocidad | Dirección | Radiación | Presion |
| 30 | Pirque | 06-05-2026 07:15 | 5,2 | 95,8 | 0 | 0 | 303 | 0,6 | 939,1 |
| 29 | Pirque | 06-05-2026 07:00 | 5,1 | 96 | 0 | 0 | 303 | 0,6 | 939 |
| 28 | Pirque | 06-05-2026 06:45 | 5,2 | 95,6 | 0 | 0 | 303 | 0,6 | 939,1 |
| 27 | Pirque | 06-05-2026 06:30 | 6,3 | 95,6 | 0 | 0 | 303 | 0,6 | 938,9 |
| 26 | Pirque | 06-05-2026 06:15 | 6,8 | 95,5 | 0 | 0 | 300 | 0,6 | 938,7 |
| 25 | Pirque | 06-05-2026 06:00 | 7,2 | 95,7 | 0 | 0 | 295 | 0,6 | 938,5 |
| 24 | Pirque | 06-05-2026 05:45 | 6,9 | 96,1 | 0 | 0 | 293 | 0,6 | 938,3 |
| 23 | Pirque | 06-05-2026 05:30 | 6,1 | 95,8 | 0 | 0 | 293 | 0,6 | 937,9 |
| 22 | Pirque | 06-05-2026 05:15 | 6 | 95,9 | 0 | 0 | 293 | 0,6 | 937,8 |
| 21 | Pirque | 06-05-2026 05:00 | 5,8 | 95,5 | 0 | 0 | 293 | 0,6 | 937,6 |
| 20 | Pirque | 06-05-2026 04:45 | 6,5 | 95,4 | 0 | 0 | 293 | 0,6 | 937,4 |
| 19 | Pirque | 06-05-2026 04:30 | 6,5 | 95,5 | 0 | 0 | 293 | 0,6 | 937,9 |
| 18 | Pirque | 06-05-2026 04:15 | 6,4 | 95,2 | 0 | 0 | 284 | 0,6 | 937,9 |
| 17 | Pirque | 06-05-2026 04:00 | 5,9 | 95,3 | 0 | 0 | 271 | 0,6 | 937,7 |
| 16 | Pirque | 06-05-2026 03:45 | 5,4 | 94,9 | 0 | 0 | 271 | 0,6 | 937,6 |
| 15 | Pirque | 06-05-2026 03:30 | 6,1 | 94,3 | 0 | 0 | 271 | 0,6 | 937,5 |
| 14 | Pirque | 06-05-2026 03:15 | 7 | 94,2 | 0 | 0 | 271 | 0,6 | 937,2 |
| 13 | Pirque | 06-05-2026 03:00 | 7 | 94,2 | 0 | 0 | 271 | 0,6 | 937,4 |
| 12 | Pirque | 06-05-2026 02:45 | 7,7 | 93,4 | 0 | 0 | 271 | 0,6 | 937,7 |
| 11 | Pirque | 06-05-2026 02:30 | 8,4 | 93,3 | 0 | 0 | 271 | 0,6 | 937,8 |
| 10 | Pirque | 06-05-2026 02:15 | 8,6 | 92,9 | 0 | 0 | 271 | 0,6 | 937,6 |
| 9 | Pirque | 06-05-2026 02:00 | 9 | 92,4 | 0 | 0 | 271 | 0,6 | 937,7 |
| 8 | Pirque | 06-05-2026 01:45 | 8,8 | 93,1 | 0 | 0 | 271 | 0,6 | 938 |
| 7 | Pirque | 06-05-2026 01:30 | 8,5 | 92,3 | 0 | 0 | 271 | 0,6 | 938,2 |
| 6 | Pirque | 06-05-2026 01:15 | 8,8 | 91,8 | 0 | 0 | 271 | 0,6 | 938,3 |
| 5 | Pirque | 06-05-2026 01:00 | 8,6 | 91,8 | 0 | 0 | 271 | 0,6 | 938,3 |
| 4 | Pirque | 06-05-2026 00:45 | 8,9 | 91,6 | 0 | 0 | 271 | 0,6 | 938,3 |
| 3 | Pirque | 06-05-2026 00:30 | 9,1 | 91,2 | 0 | 0 | 271 | 0,6 | 938,3 |
| 2 | Pirque | 06-05-2026 00:15 | 9 | 90,5 | 0 | 0 | 271 | 0,6 | 938,6 |
| 1 | Pirque | 06-05-2026 00:00 | 9,5 | 90,1 | 0 | 0 | 271 | 0,6 | 938,3 |